Time,TemperatureF,DewpointF,PressureIn,WindDirection,WindDirectionDegrees,WindSpeedMPH,WindSpeedGustMPH,Humidity,HourlyPrecipIn,Conditions,Clouds,dailyrainin,SoftwareType,DateUTC
2013-02-21 00:00:00,32.0,30.0,-100.00,SE,133,0.0,-999.0,91,0.00,,,0.67,,2013-02-21 06:00:00,
2013-02-21 01:00:00,33.0,29.0,-100.00,East,96,1.0,-999.0,87,0.00,,,-99.99,,2013-02-21 07:00:00,
2013-02-21 01:52:00,33.0,29.0,-100.00,East,96,1.0,-999.0,87,0.00,,,-99.99,,2013-02-21 07:52:00,
2013-02-21 03:00:00,33.0,29.0,-100.00,NNE,24,1.0,-999.0,86,0.00,,,0.68,,2013-02-21 09:00:00,
2013-02-21 06:00:00,32.0,31.0,-100.00,SSE,149,0.0,-999.0,93,0.00,,,0.68,,2013-02-21 12:00:00,
2013-02-21 06:53:00,32.0,31.0,-100.00,SSE,149,0.0,-999.0,93,0.00,,,0.68,,2013-02-21 12:53:00,
2013-02-21 08:00:00,32.0,32.0,-100.00,SE,131,2.0,-999.0,98,0.06,,,0.56,,2013-02-21 14:00:00,
2013-02-21 08:32:00,32.0,32.0,-100.00,SE,131,2.0,-999.0,98,0.06,,,0.56,,2013-02-21 14:32:00,
2013-02-21 08:42:00,32.0,32.0,-100.00,SE,131,2.0,-999.0,98,0.06,,,0.56,,2013-02-21 14:42:00,
2013-02-21 08:52:00,32.0,32.0,-100.00,SE,131,2.0,-999.0,98,0.06,,,0.56,,2013-02-21 14:52:00,
2013-02-21 09:00:00,33.0,33.0,-100.00,SSE,151,1.0,-999.0,99,0.25,,,0.74,,2013-02-21 15:00:00,
2013-02-21 09:32:00,33.0,33.0,-100.00,SSE,151,1.0,-999.0,99,0.25,,,0.74,,2013-02-21 15:32:00,
2013-02-21 09:42:00,33.0,33.0,-100.00,SSE,151,1.0,-999.0,99,0.25,,,0.74,,2013-02-21 15:42:00,
2013-02-21 09:52:00,33.0,33.0,-100.00,SSE,151,1.0,-999.0,99,0.25,,,0.74,,2013-02-21 15:52:00,
2013-02-21 10:00:00,33.0,33.0,-100.00,SE,140,1.0,-999.0,99,0.04,,,0.76,,2013-02-21 16:00:00,
2013-02-21 10:32:00,33.0,33.0,-100.00,SE,140,1.0,-999.0,99,0.04,,,0.76,,2013-02-21 16:32:00,
2013-02-21 10:42:00,33.0,33.0,-100.00,SE,140,1.0,-999.0,99,0.04,,,0.76,,2013-02-21 16:42:00,
2013-02-21 10:52:00,33.0,33.0,-100.00,SE,140,1.0,-999.0,99,0.04,,,0.76,,2013-02-21 16:52:00,
2013-02-21 11:00:00,35.0,35.0,-100.00,NE,44,1.0,-999.0,99,0.07,,,0.80,,2013-02-21 17:00:00,
2013-02-21 11:32:00,35.0,35.0,-100.00,NE,44,1.0,-999.0,99,0.07,,,0.80,,2013-02-21 17:32:00,
2013-02-21 11:42:00,35.0,35.0,-100.00,NE,44,1.0,-999.0,99,0.07,,,0.80,,2013-02-21 17:42:00,
2013-02-21 11:52:00,35.0,35.0,-100.00,NE,44,1.0,-999.0,99,0.07,,,0.80,,2013-02-21 17:52:00,
2013-02-21 12:00:00,36.0,35.0,-100.00,East,89,1.0,-999.0,99,0.01,,,0.78,,2013-02-21 18:00:00,
2013-02-21 12:32:00,36.0,35.0,-100.00,East,89,1.0,-999.0,99,0.01,,,0.78,,2013-02-21 18:32:00,
2013-02-21 12:42:00,36.0,35.0,-100.00,East,89,1.0,-999.0,99,0.01,,,0.78,,2013-02-21 18:42:00,
2013-02-21 12:52:00,36.0,35.0,-100.00,East,89,1.0,-999.0,99,0.01,,,0.78,,2013-02-21 18:52:00,
2013-02-21 13:00:00,36.0,36.0,-100.00,ENE,75,1.0,-999.0,99,0.01,,,0.78,,2013-02-21 19:00:00,
2013-02-21 13:32:00,36.0,36.0,-100.00,ENE,75,1.0,-999.0,99,0.01,,,0.78,,2013-02-21 19:32:00,
2013-02-21 13:42:00,36.0,36.0,-100.00,ENE,75,1.0,-999.0,99,0.01,,,0.78,,2013-02-21 19:42:00,
2013-02-21 13:52:00,36.0,36.0,-100.00,ENE,75,1.0,-999.0,99,0.01,,,0.78,,2013-02-21 19:52:00,
2013-02-21 14:00:00,38.0,38.0,-100.00,ESE,108,1.0,-999.0,99,0.00,,,0.78,,2013-02-21 20:00:00,
2013-02-21 14:32:00,38.0,38.0,-100.00,ESE,108,1.0,-999.0,99,0.00,,,0.78,,2013-02-21 20:32:00,
2013-02-21 14:42:00,38.0,38.0,-100.00,ESE,108,1.0,-999.0,99,0.00,,,0.78,,2013-02-21 20:42:00,
2013-02-21 14:53:00,38.0,38.0,-100.00,ESE,108,1.0,-999.0,99,0.00,,,0.78,,2013-02-21 20:53:00,
2013-02-21 15:00:00,39.0,39.0,-100.00,SE,126,0.0,-999.0,99,0.00,,,0.71,,2013-02-21 21:00:00,
2013-02-21 15:31:00,39.0,39.0,-100.00,SE,126,0.0,-999.0,99,0.00,,,0.71,,2013-02-21 21:31:00,
2013-02-21 15:42:00,39.0,39.0,-100.00,SE,126,0.0,-999.0,99,0.00,,,0.71,,2013-02-21 21:42:00,
2013-02-21 15:52:00,39.0,39.0,-100.00,SE,126,0.0,-999.0,99,0.00,,,0.71,,2013-02-21 21:52:00,
2013-02-21 16:00:00,39.0,39.0,-100.00,South,188,0.0,-999.0,99,0.00,,,0.63,,2013-02-21 22:00:00,
2013-02-21 16:32:00,39.0,39.0,-100.00,South,188,0.0,-999.0,99,0.00,,,0.63,,2013-02-21 22:32:00,
2013-02-21 16:42:00,39.0,39.0,-100.00,South,188,0.0,-999.0,99,0.00,,,0.63,,2013-02-21 22:42:00,
2013-02-21 16:52:00,39.0,39.0,-100.00,South,188,0.0,-999.0,99,0.00,,,0.63,,2013-02-21 22:52:00,
2013-02-21 17:00:00,40.0,39.0,-100.00,South,170,1.0,-999.0,99,0.00,,,0.61,,2013-02-21 23:00:00,
2013-02-21 17:32:00,40.0,39.0,-100.00,South,170,1.0,-999.0,99,0.00,,,0.61,,2013-02-21 23:32:00,
2013-02-21 17:42:00,40.0,39.0,-100.00,South,170,1.0,-999.0,99,0.00,,,0.61,,2013-02-21 23:42:00,
2013-02-21 17:52:00,40.0,39.0,-100.00,South,170,1.0,-999.0,99,0.00,,,0.61,,2013-02-21 23:52:00,
2013-02-21 18:00:00,40.0,39.0,-100.00,ESE,120,1.0,-999.0,99,0.00,,,0.59,,2013-02-22 00:00:00,
2013-02-21 18:32:00,40.0,39.0,-100.00,ESE,120,1.0,-999.0,99,0.00,,,0.59,,2013-02-22 00:32:00,
2013-02-21 18:42:00,40.0,39.0,-100.00,ESE,120,1.0,-999.0,99,0.00,,,0.59,,2013-02-22 00:42:00,
2013-02-21 18:52:00,40.0,39.0,-100.00,ESE,120,1.0,-999.0,99,0.00,,,0.59,,2013-02-22 00:52:00,
2013-02-21 20:00:00,38.0,38.0,-100.00,SSE,149,1.0,-999.0,99,0.00,,,0.57,,2013-02-22 02:00:00,
2013-02-21 20:32:00,38.0,38.0,-100.00,SSE,149,1.0,-999.0,99,0.00,,,0.57,,2013-02-22 02:32:00,
2013-02-21 20:42:00,38.0,38.0,-100.00,SSE,149,1.0,-999.0,99,0.00,,,0.57,,2013-02-22 02:42:00,
2013-02-21 20:52:00,38.0,38.0,-100.00,SSE,149,1.0,-999.0,99,0.00,,,0.57,,2013-02-22 02:52:00,
2013-02-21 21:00:00,38.0,38.0,-100.00,SE,129,0.0,-999.0,99,0.00,,,0.57,,2013-02-22 03:00:00,
2013-02-21 21:32:00,38.0,38.0,-100.00,SE,129,0.0,-999.0,99,0.00,,,0.57,,2013-02-22 03:32:00,
2013-02-21 21:42:00,38.0,38.0,-100.00,SE,129,0.0,-999.0,99,0.00,,,0.57,,2013-02-22 03:42:00,
2013-02-21 21:52:00,38.0,38.0,-100.00,SE,129,0.0,-999.0,99,0.00,,,0.57,,2013-02-22 03:52:00,
2013-02-21 22:00:00,39.0,39.0,-100.00,NW,304,1.0,-999.0,99,0.00,,,0.49,,2013-02-22 04:00:00,
2013-02-21 22:32:00,39.0,39.0,-100.00,NW,304,1.0,-999.0,99,0.00,,,0.49,,2013-02-22 04:32:00,
2013-02-21 22:42:00,39.0,39.0,-100.00,NW,304,1.0,-999.0,99,0.00,,,0.49,,2013-02-22 04:42:00,
2013-02-21 22:52:00,39.0,39.0,-100.00,NW,304,1.0,-999.0,99,0.00,,,0.49,,2013-02-22 04:52:00,
2013-02-21 23:00:00,39.0,38.0,-100.00,SW,236,0.0,-999.0,99,0.00,,,0.49,,2013-02-22 05:00:00,
2013-02-21 23:32:00,39.0,38.0,-100.00,SW,236,0.0,-999.0,99,0.00,,,0.49,,2013-02-22 05:32:00,
2013-02-21 23:42:00,39.0,38.0,-100.00,SW,236,0.0,-999.0,99,0.00,,,0.49,,2013-02-22 05:42:00,
2013-02-21 23:52:00,39.0,38.0,-100.00,SW,236,0.0,-999.0,99,0.00,,,0.49,,2013-02-22 05:52:00,